This is the latest recevied weather packets stored in our database for station/object DL1GHN-6. If no packets are shown the sender has not sent any weather packets the latest 10 day(s).
| Time | Temp. | Humidity | Pressure | Rain* | Wind** | Luminosity | Snow |
|---|---|---|---|---|---|---|---|
| 1777479632 | 22.22° C | 28% | 1018.3 hPa | 0 mm | - | 40 W/m² | - |
| 1777479332 | 22.78° C | 28% | 1018.2 hPa | 0 mm | - | 272 W/m² | - |
| 1777479033 | 22.78° C | 28% | 1018.2 hPa | 0 mm | - | 302 W/m² | - |
| 1777478732 | 22.78° C | 26% | 1018.2 hPa | 0 mm | - | 306 W/m² | - |
| 1777478432 | 22.78° C | 27% | 1018.2 hPa | 0 mm | - | 121 W/m² | - |
| 1777478133 | 22.78° C | 28% | 1018.2 hPa | 0 mm | - | 276 W/m² | - |
| 1777477833 | 23.33° C | 27% | 1018.1 hPa | 0 mm | - | 53 W/m² | - |
| 1777477534 | 23.33° C | 29% | 1018 hPa | 0 mm | - | 54 W/m² | - |
| 1777477234 | 23.33° C | 30% | 1018.1 hPa | 0 mm | - | 383 W/m² | - |
| 1777476933 | 23.33° C | 31% | 1018.1 hPa | 0 mm | - | 399 W/m² | - |
| 1777476633 | 23.89° C | 27% | 1017.9 hPa | 0 mm | - | 411 W/m² | - |
| 1777476332 | 23.89° C | 28% | 1018 hPa | 0 mm | - | 425 W/m² | - |
| 1777476033 | 23.89° C | 27% | 1018 hPa | 0 mm | - | 441 W/m² | - |
| 1777475732 | 23.89° C | 32% | 1017.9 hPa | 0 mm | - | 452 W/m² | - |
| 1777475433 | 23.89° C | 26% | 1018 hPa | 0 mm | - | 466 W/m² | - |
| 1777475133 | 23.89° C | 31% | 1018 hPa | 0 mm | - | 475 W/m² | - |
| 1777474833 | 23.89° C | 28% | 1018.1 hPa | 0 mm | - | 494 W/m² | - |
| 1777474533 | 23.89° C | 26% | 1018 hPa | 0 mm | - | 510 W/m² | - |
| 1777474232 | 23.89° C | 29% | 1017.9 hPa | 0 mm | - | 522 W/m² | - |
| 1777473933 | 23.89° C | 25% | 1017.9 hPa | 0 mm | - | 534 W/m² | - |
| 1777473632 | 24.44° C | 25% | 1018 hPa | 0 mm | - | 545 W/m² | - |
| 1777473332 | 24.44° C | 26% | 1018.1 hPa | 0 mm | - | 557 W/m² | - |
| 1777473033 | 24.44° C | 27% | 1018 hPa | 0 mm | - | 571 W/m² | - |
| 1777472733 | 24.44° C | 27% | 1017.9 hPa | 0 mm | - | 587 W/m² | - |
| 1777472434 | 24.44° C | 26% | 1018.1 hPa | 0 mm | - | 596 W/m² | - |
* Rain latest hour (hover to see other rain measurements)
** Current wind speed in m/s (hover to see current wind gust speed)